Location: Poughquag
(41.6090°N, 73.6820°W)
Time: 19:04:23
(UTC-05:00)

Vanguard 1 - Visible Passes

Search period start: 25 January 2021 00:00
Search period end: 04 February 2021 00:00
Orbit: 648 x 3834 km, 34.3° (Epoch: 25 January)

Date Brightness Start Highest point End Pass type
(mag) Time Alt. Az. Time Alt. Az. Time Alt. Az.
25 Jan 13.5 19:04:26 10° W 19:23:37 36° SW 19:37:39 10° SSE visible
26 Jan 13.5 16:58:26 10° W 17:20:54 58° SSW 17:39:24 10° SE visible
26 Jan 13.6 19:26:44 10° W 19:43:53 29° SW 19:56:55 10° S visible
27 Jan 13.6 17:19:55 10° W 17:41:50 51° SSW 17:59:44 10° SE visible
27 Jan 13.8 19:49:39 10° W 20:04:02 22° SW 20:15:29 10° S visible
28 Jan 13.7 17:41:31 10° W 18:02:35 45° SW 18:19:49 10° SSE visible
28 Jan 14.0 20:13:54 10° W 20:24:04 15° WSW 20:32:45 10° SSW visible
29 Jan 13.8 18:03:19 10° W 18:23:10 37° SW 18:39:32 10° SSE visible
30 Jan 13.9 18:25:29 10° W 18:43:35 30° SW 18:58:48 10° S visible
31 Jan 14.1 18:48:14 10° W 19:03:53 23° SW 19:17:23 10° S visible
01 Feb 14.3 19:12:11 10° W 19:24:06 17° SW 19:34:46 10° SSW visible
02 Feb 14.1 17:03:01 10° W 17:22:19 38° SW 17:40:40 10° SSE visible
02 Feb 14.4 19:40:07 10° WSW 19:44:14 11° WSW 19:48:12 10° SW visible
03 Feb 14.2 17:25:04 10° W 17:42:56 31° SW 17:59:53 10° S visible
